User: anonymous   Login
Location: Pedimozza
(42.0500°N, 9.3500°E)
Time: 21:40:35
(UTC+00:00)
Language:

Unknown - Orbit

View from above orbital plane
View from above orbital plane
View from above satellite
View from above satellite

Ground track
Ground track

The orbit data is extracted from the following two-line orbital elements,

1 44262U 19029AD  19290.88357413 +.00000868 +00000-0 +78936-4 0  9998
2 44262 053.0055 233.5571 0001553 088.6073 271.5093 15.05483641021478
Epoch (UTC): 17 October 2019 21:12:20
Eccentricity: 0.0001553
inclination: 53.0055°
perigee height: 549 km
apogee height: 551 km
right ascension of ascending node: 233.5571°
argument of perigee: 88.6073°
revolutions per day: 15.05483641
mean anomaly at epoch: 271.5093°
orbit number at epoch: 2147

The dashed part of the orbit path shows where the satellite is in the earth's shadow,  

DLR